AXY75 LEMD-LIRF

Flight info

Callsign AXY75
Flight time 1h 46m
Altitude 40000
Route PINAR N870 PONEN/N0471F410 N870 SEROX/N0471F400 N870 BCN N725 OSPOK/N0470F410 DCT NOLVI DCT ORKUM/N0467F400 DCT ELSAG DCT ALG DCT TINTO DCT VALMA
Aircraft A343/H-SDE2E3FGHIJ4J5M1RWXY/LB1D1

Departure

Time 2026-05-06 13:18
Airport Adolfo Suárez Madrid–Barajas Airport (LEMD)

Arrival

Time 2026-05-06 15:04
Airport Rome–Fiumicino Leonardo da Vinci International Airport (LIRF)
Time Latitude Longitude Altitude Speed Heading
2026-05-06 11:30 40.49151 -3.56355 1969 ft 0 kts 270°
2026-05-06 13:12 40.49151 -3.56373 1991 ft 4 kts 270°
2026-05-06 13:12 40.49160 -3.56430 1975 ft 7 kts 296°
2026-05-06 13:12 40.49190 -3.56451 1976 ft 5 kts 357°
2026-05-06 13:12 40.49232 -3.56451 1973 ft 7 kts
2026-05-06 13:13 40.49293 -3.56451 1971 ft 10 kts
2026-05-06 13:13 40.49373 -3.56451 1971 ft 13 kts
2026-05-06 13:13 40.49466 -3.56451 1971 ft 14 kts 360°
2026-05-06 13:13 40.49572 -3.56451 1971 ft 16 kts 360°
2026-05-06 13:14 40.49691 -3.56452 1971 ft 17 kts 360°
2026-05-06 13:14 40.49813 -3.56453 1975 ft 18 kts 359°
2026-05-06 13:14 40.49939 -3.56453 1975 ft 17 kts 359°
2026-05-06 13:14 40.50022 -3.56415 1974 ft 12 kts 68°
2026-05-06 13:15 40.50027 -3.56291 1966 ft 15 kts 89°
2026-05-06 13:15 40.50028 -3.56164 1963 ft 12 kts 90°
2026-05-06 13:15 40.50030 -3.56077 1963 ft 4 kts 83°
2026-05-06 13:15 40.50034 -3.56053 1963 ft 1 kts 77°
2026-05-06 13:16 40.50034 -3.56050 1963 ft 0 kts 77°
2026-05-06 13:16 40.50035 -3.56045 1963 ft 2 kts 74°
2026-05-06 13:16 40.50052 -3.55997 1964 ft 10 kts 60°
2026-05-06 13:16 40.50116 -3.55928 1964 ft 12 kts 17°
2026-05-06 13:17 40.50179 -3.55926 1965 ft 12 kts 357°
2026-05-06 13:17 40.50358 -3.55920 1966 ft 52 kts
2026-05-06 13:17 40.50980 -3.55930 1965 ft 125 kts 360°
2026-05-06 13:17 40.52051 -3.55937 2049 ft 175 kts 359°
2026-05-06 13:18 40.53283 -3.55947 2854 ft 180 kts 359°
2026-05-06 13:18 40.54563 -3.55863 3687 ft 189 kts 11°
2026-05-06 13:18 40.55836 -3.55325 4601 ft 196 kts 20°
2026-05-06 13:18 40.57150 -3.54714 5395 ft 209 kts 18°
2026-05-06 13:19 40.58609 -3.54120 5997 ft 227 kts 18°
2026-05-06 13:19 40.60024 -3.53124 6923 ft 238 kts 37°
2026-05-06 13:19 40.61378 -3.51687 7597 ft 261 kts 40°
2026-05-06 13:19 40.62787 -3.50083 8490 ft 273 kts 40°
2026-05-06 13:20 40.64244 -3.48427 9548 ft 279 kts 40°
2026-05-06 13:20 40.65718 -3.46762 10469 ft 289 kts 40°
2026-05-06 13:20 40.67310 -3.44972 10901 ft 314 kts 40°
2026-05-06 13:20 40.69041 -3.43030 11248 ft 338 kts 40°
2026-05-06 13:21 40.70878 -3.40971 11791 ft 354 kts 40°
2026-05-06 13:21 40.72774 -3.38847 12604 ft 361 kts 40°
2026-05-06 13:21 40.74707 -3.36680 13478 ft 367 kts 40°
2026-05-06 13:21 40.76668 -3.34479 14276 ft 373 kts 40°
2026-05-06 13:22 40.78663 -3.32239 15082 ft 379 kts 40°
2026-05-06 13:22 40.80682 -3.29970 15903 ft 384 kts 39°
2026-05-06 13:22 40.82724 -3.27666 16707 ft 389 kts 40°
2026-05-06 13:22 40.84606 -3.25064 17483 ft 396 kts 52°
2026-05-06 13:23 40.85918 -3.21844 18273 ft 403 kts 69°
2026-05-06 13:23 40.86728 -3.18267 18931 ft 410 kts 75°
2026-05-06 13:23 40.87440 -3.14585 19546 ft 417 kts 75°
2026-05-06 13:23 40.88158 -3.10838 20165 ft 424 kts 75°
2026-05-06 13:24 40.88893 -3.07036 20800 ft 430 kts 75°
2026-05-06 13:24 40.89642 -3.03182 21371 ft 437 kts 75°
2026-05-06 13:24 40.90408 -2.99259 21937 ft 444 kts 75°
2026-05-06 13:24 40.91184 -2.95282 22513 ft 450 kts 75°
2026-05-06 13:25 40.91970 -2.91254 23119 ft 456 kts 75°
2026-05-06 13:25 40.92766 -2.87167 23641 ft 461 kts 75°
2026-05-06 13:25 40.93570 -2.83036 24142 ft 466 kts 75°
2026-05-06 13:25 40.94378 -2.78872 24633 ft 470 kts 75°
2026-05-06 13:26 40.95190 -2.74673 25148 ft 473 kts 75°
2026-05-06 13:26 40.96007 -2.70447 25648 ft 476 kts 75°
2026-05-06 13:26 40.96830 -2.66185 26143 ft 480 kts 75°
2026-05-06 13:26 40.97661 -2.61873 26515 ft 486 kts 75°
2026-05-06 13:27 40.98497 -2.57524 26972 ft 489 kts 75°
2026-05-06 13:27 40.99338 -2.53144 27440 ft 492 kts 75°
2026-05-06 13:27 41.00184 -2.48743 27893 ft 495 kts 75°
2026-05-06 13:27 41.01038 -2.44307 28330 ft 499 kts 75°
2026-05-06 13:28 41.01897 -2.39845 28749 ft 502 kts 75°
2026-05-06 13:28 41.02763 -2.35353 29161 ft 505 kts 75°
2026-05-06 13:28 41.03636 -2.30837 29565 ft 508 kts 75°
2026-05-06 13:28 41.04516 -2.26281 29905 ft 513 kts 75°
2026-05-06 13:29 41.05407 -2.21688 30189 ft 517 kts 75°
2026-05-06 13:29 41.06292 -2.17126 30526 ft 519 kts 75°
2026-05-06 13:29 41.07190 -2.12487 30865 ft 521 kts 75°
2026-05-06 13:29 41.08092 -2.07825 31245 ft 522 kts 75°
2026-05-06 13:30 41.08991 -2.03181 31713 ft 520 kts 75°
2026-05-06 13:30 41.09892 -1.98536 32193 ft 519 kts 75°
2026-05-06 13:30 41.10787 -1.93907 32646 ft 518 kts 75°
2026-05-06 13:30 41.11659 -1.89273 33113 ft 517 kts 76°
2026-05-06 13:31 41.12492 -1.84636 33543 ft 517 kts 76°
2026-05-06 13:31 41.13308 -1.79998 33973 ft 516 kts 76°
2026-05-06 13:31 41.14119 -1.75363 34332 ft 515 kts 77°
2026-05-06 13:31 41.14929 -1.70738 34698 ft 514 kts 77°
2026-05-06 13:32 41.15741 -1.66117 35056 ft 514 kts 77°
2026-05-06 13:32 41.16553 -1.61506 35375 ft 513 kts 77°
2026-05-06 13:32 41.17366 -1.56892 35692 ft 513 kts 77°
2026-05-06 13:32 41.18178 -1.52282 36003 ft 513 kts 77°
2026-05-06 13:33 41.18990 -1.47660 36250 ft 515 kts 77°
2026-05-06 13:33 41.19806 -1.43022 36517 ft 516 kts 77°
2026-05-06 13:33 41.20636 -1.38391 36841 ft 516 kts 77°
2026-05-06 13:33 41.21472 -1.33761 37158 ft 515 kts 77°
2026-05-06 13:34 41.22307 -1.29140 37475 ft 515 kts 77°
2026-05-06 13:34 41.23141 -1.24516 37778 ft 515 kts 77°
2026-05-06 13:34 41.23972 -1.19887 38085 ft 515 kts 77°
2026-05-06 13:34 41.24799 -1.15263 38381 ft 514 kts 77°
2026-05-06 13:35 41.25623 -1.10631 38602 ft 516 kts 77°
2026-05-06 13:35 41.26447 -1.05985 38796 ft 517 kts 77°
2026-05-06 13:35 41.27270 -1.01339 39032 ft 516 kts 77°
2026-05-06 13:35 41.28090 -0.96689 39270 ft 515 kts 77°
2026-05-06 13:36 41.28906 -0.92056 39497 ft 515 kts 77°
2026-05-06 13:36 41.29720 -0.87421 39713 ft 514 kts 77°
2026-05-06 13:36 41.30533 -0.82779 39916 ft 515 kts 77°
2026-05-06 13:37 41.32163 -0.73438 39963 ft 520 kts 78°
2026-05-06 13:37 41.33778 -0.64139 39962 ft 519 kts 78°
2026-05-06 13:38 41.35175 -0.54740 39966 ft 516 kts 87°
2026-05-06 13:38 41.35377 -0.45225 39959 ft 513 kts 92°
2026-05-06 13:39 41.35314 -0.35716 39959 ft 513 kts 93°
2026-05-06 13:39 41.35203 -0.26221 39949 ft 513 kts 93°
2026-05-06 13:40 41.35101 -0.16718 39957 ft 513 kts 92°
2026-05-06 13:40 41.35005 -0.07216 39950 ft 513 kts 92°
2026-05-06 13:41 41.34905 0.02288 39945 ft 514 kts 93°
2026-05-06 13:41 41.34798 0.11804 39953 ft 515 kts 93°
2026-05-06 13:42 41.34681 0.21333 39943 ft 516 kts 93°
2026-05-06 13:42 41.34558 0.30894 39937 ft 517 kts 93°
2026-05-06 13:43 41.34424 0.40460 39934 ft 517 kts 93°
2026-05-06 13:43 41.34282 0.50036 39936 ft 518 kts 93°
2026-05-06 13:44 41.34131 0.59614 39934 ft 518 kts 94°
2026-05-06 13:44 41.33973 0.69192 39933 ft 518 kts 94°
2026-05-06 13:45 41.33808 0.78766 39919 ft 518 kts 94°
2026-05-06 13:45 41.33576 0.91522 39924 ft 518 kts 94°
2026-05-06 13:46 41.33390 1.01117 39928 ft 518 kts 94°
2026-05-06 13:46 41.33166 1.12261 39933 ft 519 kts 94°
2026-05-06 13:47 41.32999 1.20295 39928 ft 518 kts 94°
2026-05-06 13:47 41.32795 1.29792 39935 ft 517 kts 94°
2026-05-06 13:48 41.32579 1.39351 39935 ft 517 kts 94°
2026-05-06 13:48 41.32356 1.48912 39928 ft 517 kts 94°
2026-05-06 13:49 41.32127 1.58468 39931 ft 517 kts 95°
2026-05-06 13:49 41.31889 1.68019 39934 ft 516 kts 95°
2026-05-06 13:50 41.31647 1.77561 39939 ft 516 kts 95°
2026-05-06 13:50 41.31390 1.87101 39944 ft 516 kts 95°
2026-05-06 13:51 41.31125 1.96643 39965 ft 516 kts 95°
2026-05-06 13:51 41.30853 2.06189 39966 ft 516 kts 95°
2026-05-06 13:52 41.29912 2.15587 39965 ft 511 kts 105°
2026-05-06 13:52 41.28454 2.24838 39963 ft 511 kts 106°
2026-05-06 13:53 41.26906 2.34057 39957 ft 511 kts 107°
2026-05-06 13:53 41.25365 2.43201 39955 ft 511 kts 107°
2026-05-06 13:54 41.23818 2.52414 39950 ft 511 kts 107°
2026-05-06 13:54 41.22271 2.61620 39946 ft 511 kts 107°
2026-05-06 13:55 41.20717 2.70820 39941 ft 511 kts 107°
2026-05-06 13:55 41.19153 2.80031 39949 ft 511 kts 107°
2026-05-06 13:56 41.17582 2.89237 39946 ft 511 kts 107°
2026-05-06 13:56 41.16004 2.98435 39946 ft 511 kts 107°
2026-05-06 13:57 41.14418 3.07634 39945 ft 511 kts 107°
2026-05-06 13:57 41.12826 3.16817 39950 ft 511 kts 107°
2026-05-06 13:58 41.11228 3.25993 39952 ft 510 kts 107°
2026-05-06 13:58 41.09623 3.35155 39952 ft 510 kts 107°
2026-05-06 13:59 41.08009 3.44325 39927 ft 510 kts 108°
2026-05-06 13:59 41.06390 3.53481 39952 ft 511 kts 108°
2026-05-06 14:00 41.04760 3.62641 39955 ft 511 kts 108°
2026-05-06 14:00 41.03125 3.71799 39955 ft 511 kts 108°
2026-05-06 14:01 41.01484 3.80948 39945 ft 511 kts 108°
2026-05-06 14:01 40.99836 3.90096 39952 ft 511 kts 108°
2026-05-06 14:02 40.98172 3.99244 39952 ft 511 kts 108°
2026-05-06 14:02 40.96500 4.08390 39952 ft 511 kts 108°
2026-05-06 14:03 40.94823 4.17531 39952 ft 511 kts 108°
2026-05-06 14:03 40.93139 4.26670 39948 ft 511 kts 108°
2026-05-06 14:04 40.91449 4.35807 39949 ft 512 kts 108°
2026-05-06 14:04 40.89752 4.44937 39954 ft 512 kts 108°
2026-05-06 14:05 40.88056 4.54070 39967 ft 512 kts 108°
2026-05-06 14:05 40.86349 4.63195 39951 ft 511 kts 108°
2026-05-06 14:06 40.85165 4.72436 39963 ft 515 kts 102°
2026-05-06 14:06 40.84265 4.81834 39954 ft 516 kts 101°
2026-05-06 14:07 40.83408 4.91245 39957 ft 516 kts 101°
2026-05-06 14:07 40.82538 5.00656 39958 ft 516 kts 101°
2026-05-06 14:08 40.81651 5.10056 39958 ft 516 kts 101°
2026-05-06 14:08 40.80752 5.19445 39953 ft 516 kts 101°
2026-05-06 14:09 40.79845 5.28837 39961 ft 516 kts 101°
2026-05-06 14:09 40.78931 5.38217 39953 ft 515 kts 101°
2026-05-06 14:10 40.78012 5.47585 39949 ft 514 kts 101°
2026-05-06 14:10 40.77088 5.56922 39949 ft 513 kts 101°
2026-05-06 14:11 40.76155 5.66255 39955 ft 513 kts 102°
2026-05-06 14:11 40.75215 5.75588 39956 ft 513 kts 102°
2026-05-06 14:12 40.74277 5.84832 39943 ft 512 kts 102°
2026-05-06 14:12 40.73320 5.94191 39957 ft 512 kts 102°
2026-05-06 14:13 40.72363 6.03477 39958 ft 512 kts 102°
2026-05-06 14:13 40.71400 6.12707 39948 ft 511 kts 102°
2026-05-06 14:14 40.70424 6.21988 39953 ft 511 kts 102°
2026-05-06 14:14 40.69442 6.31260 39954 ft 511 kts 102°
2026-05-06 14:15 40.68452 6.40536 39952 ft 511 kts 102°
2026-05-06 14:15 40.67457 6.49799 39947 ft 511 kts 102°
2026-05-06 14:16 40.66455 6.59047 39953 ft 509 kts 102°
2026-05-06 14:16 40.65448 6.68276 39953 ft 509 kts 102°
2026-05-06 14:17 40.64432 6.77502 39950 ft 509 kts 102°
2026-05-06 14:17 40.63410 6.86724 39940 ft 509 kts 102°
2026-05-06 14:18 40.62381 6.95934 39949 ft 508 kts 102°
2026-05-06 14:18 40.61346 7.05129 39947 ft 508 kts 103°
2026-05-06 14:19 40.60303 7.14324 39950 ft 508 kts 103°
2026-05-06 14:19 40.59254 7.23504 39950 ft 508 kts 103°
2026-05-06 14:20 40.58198 7.32692 39950 ft 508 kts 103°
2026-05-06 14:20 40.57142 7.41814 39950 ft 508 kts 103°
2026-05-06 14:21 40.56732 7.51115 39954 ft 514 kts 89°
2026-05-06 14:21 40.57389 7.60497 39935 ft 516 kts 86°
2026-05-06 14:22 40.58221 7.69880 39950 ft 517 kts 86°
2026-05-06 14:22 40.59059 7.79272 39950 ft 517 kts 86°
2026-05-06 14:23 40.59867 7.88670 39955 ft 517 kts 86°
2026-05-06 14:23 40.60655 7.98072 39945 ft 517 kts 86°
2026-05-06 14:24 40.61439 8.07471 39961 ft 517 kts 86°
2026-05-06 14:24 40.62216 8.16880 39975 ft 517 kts 86°
2026-05-06 14:25 40.63540 8.26178 39970 ft 520 kts 71°
2026-05-06 14:25 40.66124 8.35078 39944 ft 521 kts 69°
2026-05-06 14:26 40.68929 8.43881 39947 ft 521 kts 68°
2026-05-06 14:26 40.71744 8.52680 39942 ft 521 kts 68°
2026-05-06 14:27 40.74524 8.61490 39947 ft 521 kts 69°
2026-05-06 14:27 40.77285 8.70327 39946 ft 521 kts 69°
2026-05-06 14:28 40.80034 8.79166 39964 ft 520 kts 69°
2026-05-06 14:28 40.82772 8.87993 39942 ft 520 kts 69°
2026-05-06 14:29 40.85506 8.96832 39947 ft 520 kts 69°
2026-05-06 14:29 40.88233 9.05681 39947 ft 520 kts 69°
2026-05-06 14:30 40.90953 9.14533 39944 ft 520 kts 69°
2026-05-06 14:30 40.93649 9.23336 39947 ft 520 kts 69°
2026-05-06 14:31 40.96373 9.32263 39946 ft 520 kts 69°
2026-05-06 14:31 40.99058 9.41090 39963 ft 520 kts 69°
2026-05-06 14:32 41.01750 9.49969 39960 ft 520 kts 69°
2026-05-06 14:32 41.04440 9.58871 39961 ft 520 kts 69°
2026-05-06 14:33 41.07122 9.67778 39736 ft 520 kts 69°
2026-05-06 14:33 41.08460 9.72233 39590 ft 521 kts 69°
2026-05-06 14:33 41.09798 9.76693 39453 ft 521 kts 69°
2026-05-06 14:34 41.12014 9.84101 39203 ft 519 kts 69°
2026-05-06 14:34 41.13344 9.88556 39063 ft 519 kts 70°
2026-05-06 14:34 41.14672 9.93012 38948 ft 520 kts 70°
2026-05-06 14:35 41.15999 9.97472 38819 ft 520 kts 70°
2026-05-06 14:35 41.17323 10.01933 38671 ft 520 kts 70°
2026-05-06 14:35 41.18647 10.06399 38518 ft 520 kts 70°
2026-05-06 14:35 41.19968 10.10861 38288 ft 519 kts 70°
2026-05-06 14:36 41.21286 10.15322 38003 ft 517 kts 70°
2026-05-06 14:36 41.22590 10.19739 37578 ft 513 kts 70°
2026-05-06 14:36 41.23887 10.24142 37084 ft 510 kts 71°
2026-05-06 14:36 41.25176 10.28527 36609 ft 508 kts 71°
2026-05-06 14:37 41.26456 10.32891 36109 ft 506 kts 71°
2026-05-06 14:37 41.27733 10.37251 35612 ft 506 kts 71°
2026-05-06 14:37 41.29008 10.41612 35107 ft 507 kts 72°
2026-05-06 14:37 41.30286 10.45996 34556 ft 511 kts 72°
2026-05-06 14:38 41.31575 10.50421 33765 ft 516 kts 73°
2026-05-06 14:38 41.32875 10.54899 32746 ft 523 kts 72°
2026-05-06 14:38 41.34192 10.59445 31738 ft 529 kts 72°
2026-05-06 14:38 41.35523 10.64040 30748 ft 536 kts 71°
2026-05-06 14:39 41.36867 10.68683 29952 ft 537 kts 71°
2026-05-06 14:39 41.38205 10.73306 29128 ft 534 kts 71°
2026-05-06 14:39 41.39536 10.77905 28387 ft 530 kts 71°
2026-05-06 14:39 41.40853 10.82466 27634 ft 525 kts 71°
2026-05-06 14:40 41.42156 10.86987 26902 ft 521 kts 71°
2026-05-06 14:40 41.43445 10.91475 26169 ft 516 kts 71°
2026-05-06 14:40 41.44720 10.95923 25428 ft 512 kts 71°
2026-05-06 14:40 41.45985 11.00347 24741 ft 507 kts 71°
2026-05-06 14:41 41.47232 11.04719 23988 ft 503 kts 71°
2026-05-06 14:41 41.48469 11.09057 23281 ft 498 kts 71°
2026-05-06 14:41 41.49666 11.13301 22547 ft 492 kts 71°
2026-05-06 14:41 41.50857 11.17546 21839 ft 485 kts 71°
2026-05-06 14:42 41.52030 11.21728 21166 ft 478 kts 71°
2026-05-06 14:42 41.53186 11.25857 20511 ft 471 kts 72°
2026-05-06 14:42 41.54336 11.29965 19906 ft 463 kts 72°
2026-05-06 14:42 41.55429 11.33874 19638 ft 447 kts 72°
2026-05-06 14:43 41.56512 11.37749 19428 ft 431 kts 72°
2026-05-06 14:43 41.57526 11.41387 19243 ft 417 kts 72°
2026-05-06 14:43 41.58528 11.44959 19030 ft 404 kts 72°
2026-05-06 14:43 41.59506 11.48414 18847 ft 391 kts 72°
2026-05-06 14:44 41.60449 11.51747 18219 ft 379 kts 72°
2026-05-06 14:44 41.61370 11.55018 17287 ft 373 kts 72°
2026-05-06 14:44 41.62270 11.58219 16656 ft 362 kts 72°
2026-05-06 14:45 41.64022 11.64461 15714 ft 360 kts 71°
2026-05-06 14:45 41.64898 11.67590 15322 ft 358 kts 71°
2026-05-06 14:45 41.65769 11.70703 14906 ft 356 kts 71°
2026-05-06 14:45 41.66635 11.73797 14499 ft 354 kts 71°
2026-05-06 14:46 41.67493 11.76865 14236 ft 348 kts 71°
2026-05-06 14:46 41.68326 11.79848 14084 ft 338 kts 71°
2026-05-06 14:46 41.69138 11.82758 13933 ft 330 kts 71°
2026-05-06 14:46 41.69933 11.85613 13665 ft 326 kts 71°
2026-05-06 14:47 41.70718 11.88436 13270 ft 321 kts 71°
2026-05-06 14:47 41.71488 11.91212 12842 ft 315 kts 71°
2026-05-06 14:47 41.72237 11.93917 12703 ft 306 kts 71°
2026-05-06 14:47 41.72966 11.96557 12582 ft 298 kts 71°
2026-05-06 14:48 41.73779 11.99033 12458 ft 293 kts 59°
2026-05-06 14:48 41.75184 12.01000 12335 ft 295 kts 31°
2026-05-06 14:48 41.77096 12.01853 12265 ft 290 kts
2026-05-06 14:48 41.79070 12.01524 12225 ft 285 kts 340°
2026-05-06 14:49 41.80965 12.00744 12185 ft 285 kts 338°
2026-05-06 14:49 41.82848 11.99917 12108 ft 283 kts 338°
2026-05-06 14:49 41.84723 11.99101 12018 ft 284 kts 338°
2026-05-06 14:49 41.86604 11.98291 11940 ft 283 kts 338°
2026-05-06 14:50 41.88474 11.97492 11685 ft 282 kts 338°
2026-05-06 14:50 41.90343 11.96697 11404 ft 282 kts 338°
2026-05-06 14:50 41.92210 11.95903 11143 ft 281 kts 338°
2026-05-06 14:50 41.94068 11.95114 10875 ft 280 kts 338°
2026-05-06 14:51 41.95922 11.94327 10613 ft 279 kts 338°
2026-05-06 14:51 41.97767 11.93544 10346 ft 278 kts 338°
2026-05-06 14:51 41.99615 11.92759 10095 ft 277 kts 338°
2026-05-06 14:51 42.01445 11.91982 9874 ft 275 kts 338°
2026-05-06 14:52 42.03265 11.91208 9575 ft 273 kts 338°
2026-05-06 14:52 42.05064 11.90443 9399 ft 268 kts 338°
2026-05-06 14:52 42.06828 11.89694 9247 ft 264 kts 337°
2026-05-06 14:52 42.08607 11.89056 9078 ft 265 kts 343°
2026-05-06 14:53 42.10407 11.88543 8923 ft 264 kts 344°
2026-05-06 14:53 42.12198 11.88038 8821 ft 262 kts 343°
2026-05-06 14:53 42.13991 11.87631 8648 ft 264 kts 355°
2026-05-06 14:53 42.15798 11.88155 8376 ft 271 kts 24°
2026-05-06 14:54 42.17253 11.89760 8160 ft 273 kts 53°
2026-05-06 14:54 42.18254 11.91910 7985 ft 270 kts 63°
2026-05-06 14:54 42.19026 11.94200 7734 ft 267 kts 71°
2026-05-06 14:54 42.19632 11.96577 7471 ft 267 kts 73°
2026-05-06 14:55 42.20153 11.98970 7234 ft 264 kts 82°
2026-05-06 14:55 42.20261 12.01377 7127 ft 252 kts 97°
2026-05-06 14:55 42.19926 12.03606 6960 ft 243 kts 112°
2026-05-06 14:55 42.19205 12.05679 6575 ft 244 kts 128°
2026-05-06 14:56 42.18121 12.07402 6294 ft 239 kts 142°
2026-05-06 14:56 42.16761 12.08652 6003 ft 235 kts 158°
2026-05-06 14:56 42.15220 12.09347 5671 ft 234 kts 173°
2026-05-06 14:56 42.13607 12.09436 5384 ft 231 kts 188°
2026-05-06 14:57 42.12062 12.08955 5163 ft 225 kts 198°
2026-05-06 14:57 42.10522 12.08773 4931 ft 225 kts 172°
2026-05-06 14:57 42.09113 12.09677 4715 ft 230 kts 145°
2026-05-06 14:57 42.07960 12.11182 4490 ft 230 kts 136°
2026-05-06 14:58 42.06871 12.12734 4295 ft 225 kts 137°
2026-05-06 14:58 42.05819 12.14247 4165 ft 218 kts 136°
2026-05-06 14:58 42.04803 12.15725 4003 ft 212 kts 136°
2026-05-06 14:58 42.03823 12.17174 3858 ft 206 kts 136°
2026-05-06 14:59 42.02762 12.18351 3762 ft 188 kts 154°
2026-05-06 14:59 42.01609 12.18995 3569 ft 174 kts 165°
2026-05-06 14:59 42.00478 12.19473 3341 ft 167 kts 165°
2026-05-06 14:59 41.99388 12.19946 3109 ft 163 kts 166°
2026-05-06 15:00 41.98317 12.20401 2862 ft 160 kts 166°
2026-05-06 15:00 41.97270 12.20843 2649 ft 156 kts 166°
2026-05-06 15:00 41.96248 12.21272 2442 ft 152 kts 166°
2026-05-06 15:00 41.95245 12.21693 2231 ft 150 kts 165°
2026-05-06 15:01 41.94253 12.22109 2037 ft 147 kts 164°
2026-05-06 15:01 41.93280 12.22517 1846 ft 146 kts 163°
2026-05-06 15:01 41.92308 12.22926 1654 ft 146 kts 163°
2026-05-06 15:01 41.91348 12.23328 1465 ft 143 kts 162°
2026-05-06 15:02 41.90434 12.23711 1282 ft 130 kts 162°
2026-05-06 15:02 41.89612 12.24056 1106 ft 120 kts 162°
2026-05-06 15:02 41.88827 12.24385 951 ft 120 kts 162°
2026-05-06 15:02 41.88029 12.24719 786 ft 121 kts 162°
2026-05-06 15:03 41.87232 12.25052 635 ft 119 kts 162°
2026-05-06 15:03 41.86438 12.25385 463 ft 120 kts 161°
2026-05-06 15:03 41.85645 12.25716 295 ft 118 kts 163°
2026-05-06 15:03 41.84862 12.26039 143 ft 118 kts 162°
2026-05-06 15:04 41.84079 12.26365 26 ft 112 kts 162°
2026-05-06 15:04 41.83461 12.26634 17 ft 78 kts 161°
2026-05-06 15:04 41.83033 12.26815 16 ft 42 kts 164°
2026-05-06 15:04 41.82862 12.26868 17 ft 17 kts 169°
2026-05-06 15:05 41.82752 12.26873 17 ft 16 kts 185°
2026-05-06 15:05 41.82627 12.26850 15 ft 19 kts 191°
2026-05-06 15:05 41.82509 12.26812 15 ft 15 kts 194°
2026-05-06 15:05 41.82406 12.26779 15 ft 16 kts 189°
2026-05-06 15:06 41.82290 12.26797 15 ft 18 kts 164°
2026-05-06 15:06 41.82164 12.26847 15 ft 20 kts 163°
2026-05-06 15:06 41.82035 12.26900 15 ft 20 kts 163°
2026-05-06 15:06 41.81900 12.26956 15 ft 20 kts 162°
2026-05-06 15:07 41.81762 12.27014 16 ft 21 kts 162°
2026-05-06 15:07 41.81617 12.27076 16 ft 22 kts 162°
2026-05-06 15:07 41.81469 12.27137 16 ft 22 kts 163°
2026-05-06 15:07 41.81331 12.27194 16 ft 21 kts 162°
2026-05-06 15:08 41.81194 12.27252 16 ft 21 kts 162°
2026-05-06 15:08 41.81068 12.27304 17 ft 18 kts 162°
2026-05-06 15:08 41.80957 12.27347 17 ft 15 kts 170°
2026-05-06 15:08 41.80857 12.27341 17 ft 15 kts 188°
2026-05-06 15:09 41.80744 12.27314 17 ft 17 kts 192°
2026-05-06 15:09 41.80654 12.27214 17 ft 18 kts 245°
2026-05-06 15:09 41.80606 12.27052 17 ft 20 kts 249°
2026-05-06 15:09 41.80555 12.26865 18 ft 23 kts 250°
2026-05-06 15:10 41.80500 12.26661 19 ft 24 kts 250°
2026-05-06 15:10 41.80448 12.26464 20 ft 20 kts 251°
2026-05-06 15:10 41.80395 12.26363 19 ft 13 kts 203°
2026-05-06 15:10 41.80301 12.26395 18 ft 15 kts 161°
2026-05-06 15:11 41.80193 12.26392 18 ft 17 kts 202°
2026-05-06 15:11 41.80120 12.26335 18 ft 9 kts 237°
2026-05-06 15:11 41.80122 12.26264 18 ft 5 kts 270°
2026-05-06 15:11 41.80098 12.26229 18 ft 4 kts 213°
2026-05-06 15:12 41.80079 12.26216 18 ft 1 kts 205°